Stanley, ID

1:02 PM MDT on July 26, 2016 (GMT -0600)
Stanley

Weather History for KSNT - June, 2013

Change the Weather History Date:

Saturday, June 15, 2013

  Actual Average Record
Temperature  
Mean Temperature 47 °F 50 °F  
Max Temperature 72 °F 66 °F 83 °F (2002)
Min Temperature 21 °F 33 °F 12 °F (1923)
Degree Days  
Heating Degree Days 18 15  
Month to date heating degree days 203 253  
Since 1 June heating degree days 203 253  
Since 1 July heating degree days 10064 10595  
Cooling Degree Days 0 0  
Month to date cooling degree days 0 0  
Year to date cooling degree days 0 0  
Since 1 June cooling degree days 0 0  
Moisture  
Dew Point 23 °F    
Average Humidity 52    
Maximum Humidity 92    
Minimum Humidity 11    
Precipitation  
Precipitation 0.00 in 0.05 in 0.30 in (1977)
Month to date precipitation 0.15 0.77  
Year to date precipitation 5.04 9.30  
Sea Level Pressure  
Sea Level Pressure 30.01 in    
Wind  
Wind Speed 4 mph (West)    
Max Wind Speed 12 mph    
Max Gust Speed 16 mph    
T = Trace of Precipitation, MM = Missing Value Source: NWS Daily Summary

Daily Weather History Graph

Daily Weather History Graph

Search for Another Location

Airport or City:

Trip Planner

Search our weather history database for the weather conditions in past years. The results will help you decide how hot, cold, wet, or windy it might be!

Date:

Astronomy

Jun. 15, 2013 Rise Set
Actual Time 5:55 AM MDT 9:25 PM MDT
Civil Twilight 5:19 AM MDT 10:01 PM MDT
Nautical Twilight 4:31 AM MDT 10:49 PM MDT
Astronomical Twilight 3:29 AM MDT 11:51 PM MDT
Moon 12:48 PM MDT (6/15) 12:50 AM MDT (6/15)
Length of Visible Light 16h 42m
Length of Day
15h 29m
Waxing Crescent, 40% of the Moon is Illuminated
Jun 15
Waxing Crescent
Jun 16
First Quarter
Jun 23
Full
Jun 29
Last Quarter
Jul 8
New

Hourly Weather History & Observations

Time (MDT) Temp. Windchill Dew Point Humidity Pressure Visibility Wind Dir Wind Speed Gust Speed Precip Events Conditions
12:51 AM 28.9 °F - 25.0 °F 85% 30.12 in - Calm Calm - N/A   Unknown
1:51 AM 28.0 °F - 25.0 °F 88% 30.12 in - Calm Calm - N/A   Unknown
2:51 AM 25.0 °F - 23.0 °F 92% 30.11 in - Calm Calm - N/A   Unknown
3:51 AM 24.1 °F - 21.9 °F 91% 30.10 in - Calm Calm - N/A   Unknown
4:51 AM 24.1 °F - 21.9 °F 91% 30.10 in - Calm Calm - N/A   Unknown
5:51 AM 21.0 °F - 19.9 °F 96% 30.10 in - Calm Calm - N/A   Unknown
6:51 AM 24.1 °F - 21.9 °F 91% 30.10 in - Calm Calm - N/A   Unknown
7:51 AM 30.9 °F - 26.1 °F 82% 30.08 in - Calm Calm - N/A   Unknown
8:51 AM 37.9 °F 35.5 °F 28.9 °F 70% 30.07 in - NNE 3.5 mph - N/A   Unknown
9:51 AM 45.0 °F 43.5 °F 28.9 °F 53% 30.06 in - Variable 3.5 mph - N/A   Unknown
10:51 AM 53.1 °F - 28.9 °F 40% 30.01 in - Variable 4.6 mph - N/A   Unknown
11:51 AM 61.0 °F - 24.1 °F 24% 29.98 in - NNW 6.9 mph - N/A   Unknown
12:51 PM 64.0 °F - 24.1 °F 22% 29.96 in - WNW 8.1 mph - N/A   Unknown
1:51 PM 66.9 °F - 21.9 °F 18% 29.94 in - NNE 4.6 mph - N/A   Unknown
2:51 PM 68.0 °F - 16.0 °F 14% 29.94 in - Variable 4.6 mph - N/A   Unknown
3:51 PM 69.1 °F - 14.0 °F 12% 29.94 in - SSW 10.4 mph - N/A   Unknown
4:51 PM 71.1 °F - 16.0 °F 12% 29.91 in - Variable 6.9 mph - N/A   Unknown
5:51 PM 71.1 °F - 18.0 °F 13% 29.92 in - WSW 6.9 mph - N/A   Unknown
6:51 PM 71.1 °F - 19.9 °F 14% 29.91 in - NW 5.8 mph - N/A   Unknown
7:51 PM 69.1 °F - 21.9 °F 17% 29.90 in - WSW 4.6 mph - N/A   Unknown
8:51 PM 61.0 °F - 28.9 °F 30% 29.91 in - Calm Calm - N/A   Unknown
9:51 PM 52.0 °F - 28.0 °F 40% 29.94 in - SSW 3.5 mph - N/A   Unknown
10:51 PM 45.0 °F 43.5 °F 28.9 °F 53% 29.97 in - SSE 3.5 mph - N/A   Unknown
11:51 PM 39.9 °F 35.8 °F 28.0 °F 63% 29.96 in - SSE 5.8 mph - N/A   Unknown